TimeCDT,TemperatureF,Dew PointF,Humidity,Sea Level PressureIn,VisibilityMPH,Wind Direction,Wind SpeedMPH,Gust SpeedMPH,PrecipitationIn,Events,Conditions,WindDirDegrees,DateUTC
12:56 AM,37.0,34.0,89,30.32,-9999.0,North,29.9,39.1,N/A,,Unknown,360,2013-05-02 05:56:00
1:56 AM,37.0,34.0,89,30.32,-9999.0,North,29.9,40.3,N/A,,Unknown,10,2013-05-02 06:56:00
2:56 AM,37.0,34.0,89,30.35,-9999.0,North,25.3,41.4,N/A,,Unknown,360,2013-05-02 07:56:00
3:56 AM,36.0,34.0,93,30.39,-9999.0,North,23.0,33.4,N/A,,Unknown,350,2013-05-02 08:56:00
4:56 AM,35.1,33.1,92,30.38,-9999.0,North,27.6,38.0,0.01,,Unknown,360,2013-05-02 09:56:00
5:56 AM,35.1,33.1,92,30.42,-9999.0,North,27.6,38.0,0.01,,Unknown,360,2013-05-02 10:56:00
6:56 AM,34.0,33.1,96,30.46,-9999.0,North,24.2,31.1,0.01,,Unknown,360,2013-05-02 11:56:00
7:56 AM,34.0,33.1,96,30.50,-9999.0,North,20.7,32.2,0.03,,Unknown,350,2013-05-02 12:56:00
8:56 AM,36.0,33.1,89,30.51,-9999.0,North,21.9,29.9,0.01,,Unknown,360,2013-05-02 13:56:00
9:56 AM,37.9,32.0,79,30.51,-9999.0,North,28.8,39.1,N/A,,Unknown,10,2013-05-02 14:56:00
10:56 AM,39.0,30.9,73,30.54,-9999.0,North,27.6,39.1,N/A,,Unknown,10,2013-05-02 15:56:00
11:56 AM,43.0,32.0,65,30.53,-9999.0,North,29.9,36.8,N/A,,Unknown,10,2013-05-02 16:56:00
12:56 PM,48.0,28.0,46,30.49,-9999.0,North,32.2,50.6,N/A,,Unknown,10,2013-05-02 17:56:00
1:56 PM,50.0,25.0,38,30.48,-9999.0,North,28.8,49.5,N/A,,Unknown,10,2013-05-02 18:56:00
2:56 PM,50.0,25.0,38,30.48,-9999.0,North,29.9,42.6,N/A,,Unknown,10,2013-05-02 19:56:00
3:56 PM,51.1,26.1,38,30.47,-9999.0,North,25.3,39.1,N/A,,Unknown,10,2013-05-02 20:56:00
4:56 PM,53.1,25.0,34,30.46,-9999.0,NNE,25.3,39.1,N/A,,Unknown,20,2013-05-02 21:56:00
5:56 PM,52.0,27.0,38,30.45,-9999.0,North,26.5,36.8,N/A,,Unknown,10,2013-05-02 22:56:00
6:56 PM,51.1,26.1,38,30.45,-9999.0,North,19.6,33.4,N/A,,Unknown,10,2013-05-02 23:56:00
7:56 PM,48.0,27.0,44,30.46,-9999.0,NNE,18.4,-,N/A,,Unknown,20,2013-05-03 00:56:00
8:56 PM,43.0,28.9,58,30.47,-9999.0,NNE,8.1,-,N/A,,Unknown,20,2013-05-03 01:56:00
9:56 PM,37.9,30.0,73,30.47,-9999.0,North,4.6,-,N/A,,Unknown,350,2013-05-03 02:56:00
10:56 PM,37.0,30.0,76,30.46,-9999.0,North,4.6,-,N/A,,Unknown,350,2013-05-03 03:56:00
11:56 PM,34.0,30.0,85,30.45,-9999.0,North,4.6,-,N/A,,Unknown,360,2013-05-03 04:56:00